Voltar ao catálogo

STARLINK-11224

AtivoComunicaçõesVLEO
NORAD 60304·PAYLOAD·🇺🇸 United States

Lançado Jul 28, 2024 de Vandenberg Space Force Base

Loading…

Próximas Passagens (próximas 24 horas)

TLE

AtualizadoSource: CelesTrak SupGP

Época: Sep 14, 2026, 21:25 UTC

1 60304C 24133D   26257.89284722 -.00033674  00000+0 -27737-3 0  2570
2 60304  53.1572 293.5644 0001188  77.4846 151.0574 15.69727376    12

Acompanhe STARLINK-11224 em tempo real com AllMySat

Download on the App Store